Location: Casilda
(33.0440°S, 61.1680°W)
Time: 22:40:45
(UTC-03:00)

ISS - Pass Details

Date: 23 December 2025
Orbit: 414 x 424 km, 51.6° (Epoch: 13 January)

Event Time Altitude Azimuth Distance (km) Brightness Sun altitude
Rises 22:40:34 0° 229° (SW) 2,376 1.4 -24.0°
Reaches altitude 10° 22:42:41 10° 231° (SW) 1,507 0.0 -24.2°
Enters shadow 22:44:47 34° 242° (WSW) 709 -2.2 -24.5°
